カタログに戻る

THOR ABLESTAR DEB

運用中LEO
NORAD 154·DEBRIS·🇺🇸 United States

打ち上げ Jun 29, 1961 から Cape Canaveral Space Force Station

Loading…

次のパス (今後24時間)

TLE

最新Source: Space-Track

元期: Sep 14, 2026, 01:45 UTC

1 00154U 61015AQ  26257.07334284  .00000171  00000-0  14760-3 0  9996
2 00154  66.6571 289.1908 0087686 309.7709  49.5677 14.06374241329138

AllMySatでTHOR ABLESTAR DEBをリアルタイム追跡

Download on the App Store